Home   Weather   Kobe   Past weeks

Flag for Japan Past Weather in Kobe, Japan — Yesterday and Last 2 Weeks

Now
79 °F

Broken clouds.


Feels Like: 81 °F
Forecast: 70 / 76 °F
Wind: 2 mph from North

Location: Osaka International Airport

Current Time: Jun 28, 2017 at 12:43:29 pm

Latest Report: Jun 28, 2017 at 12:00 pm


Visibility: N/A

Pressure: 29.89 "Hg

Humidity: 74%

Dew Point: 70 °F

Location of KobeLocation

Past Weather in Kobe — Graph

°F

Kobe Temperature Yesterday

Maximum temperature yesterday: 86 °F (at 2:00 pm)
Minimum temperature yesterday: 70 °F (at 5:00 am)
Average temperature yesterday: 78 °F

High & Low Weather Summary for the Past Weeks

 TemperatureHumidityPressure
High90 °F (Jun 23, 12:44 pm)100% (Jun 21, 7:15 am)29.92 "Hg (Jun 21, 7:15 am)
Low59 °F (Jun 14, 5:00 am)9% (Jun 14, 5:00 pm)29.50 "Hg (Jun 21, 7:24 am)
Average76 °F58%29.74 "Hg
* Reported Jun 13 11:00 am — Jun 28 11:00 am, Kobe. Weather by CustomWeather, © 2017

Note: Actual official high and low records may vary slightly from our data, if they occured in-between our weather recording intervals... More about our weather records

Advertising

Kobe Weather History for the Previous 24 Hours

Scroll right to see more
 ConditionsComfort  
Time TempWeatherWind HumidityBarometerVisibility
11:00 am
Wed, Jun 28
75 °FLight rain. Broken clouds.2 mph89%29.92 "Hg5 mi
10:00 am73 °FLight rain. Broken clouds.1 mph94%29.92 "HgN/A
9:00 am73 °FLight rain. Broken clouds.3 mph94%29.92 "Hg5 mi
8:00 am73 °FLight rain. Fog.1 mph94%29.92 "Hg3 mi
7:00 am72 °FLight rain. Fog.2 mph100%29.92 "Hg3 mi
6:00 am72 °FLight rain. Fog.1 mph100%29.89 "Hg4 mi
5:00 am72 °FLight rain. Fog.3 mph100%29.89 "Hg4 mi
8:00 pm
Tue, Jun 27
75 °FLight rain. Partly cloudy.8 mph74%29.86 "HgN/A
7:00 pm77 °FLight rain. Partly sunny.9 mph65%29.86 "HgN/A
6:00 pm79 °FBroken clouds.10 mph61%29.83 "HgN/A
5:00 pm81 °FBroken clouds.9 mph48%29.83 "HgN/A
4:00 pm82 °FBroken clouds.6 mph48%29.83 "HgN/A
3:00 pm84 °FBroken clouds.1 mph43%29.80 "HgN/A
2:00 pm86 °FBroken clouds.5 mph46%29.80 "HgN/A
1:00 pm82 °FPartly sunny.2 mph51%29.83 "HgN/A
12:00 pm82 °FPartly sunny.1 mph48%29.83 "HgN/A
Weather by CustomWeather, © 2017

See weather overviewHow to use our weather pages